Rochester, MN

5:24 AM CDT on July 23, 2017 (GMT -0500)
Rochester International

Weather History for KRST - October, 2012

Change the Weather History Date:

Tuesday, October 30, 2012

  Actual Average Record
Temperature  
Mean Temperature 42 °F 43 °F  
Max Temperature 52 °F 52 °F 79 °F (1950)
Min Temperature 31 °F 34 °F 11 °F (1988)
Degree Days  
Heating Degree Days 23 22  
Month to date heating degree days 468 497  
Since 1 July heating degree days 638 712  
Cooling Degree Days 0 0  
Month to date cooling degree days 0 4  
Year to date cooling degree days 888 583  
Moisture  
Dew Point 22 °F    
Average Humidity 50    
Maximum Humidity 69    
Minimum Humidity 30    
Precipitation  
Precipitation 0.00 in 0.06 in 0.91 in (1935)
Month to date precipitation 1.85 2.18  
Year to date precipitation 22.55 29.82  
Snow  
Snow 0.00 in 0.00 in 4.00 in (1930)
Month to date snowfall 0.0 0.7  
Since 1 July snowfall 0.0 0.7  
Snow Depth 0.00 in    
Sea Level Pressure  
Sea Level Pressure 30.15 in    
Wind  
Wind Speed 11 mph (North)    
Max Wind Speed 21 mph    
Max Gust Speed 25 mph    
Visibility 10 miles    
Events      
T = Trace of Precipitation, MM = Missing Value Source: NWS Daily Summary

Daily Weather History Graph

Daily Weather History Graph

Search for Another Location

Airport or City:

Trip Planner

Search our weather history database for the weather conditions in past years. The results will help you decide how hot, cold, wet, or windy it might be!

Date:

Astronomy

Oct. 30, 2012 Rise Set
Actual Time 7:44 AM CDT 6:02 PM CDT
Civil Twilight 7:14 AM CDT 6:32 PM CDT
Nautical Twilight 6:40 AM CDT 7:06 PM CDT
Astronomical Twilight 6:06 AM CDT 7:39 PM CDT
Moon 6:29 PM CDT (10/30) 8:34 AM CDT (10/30)
Length of Visible Light 11h 17m
Length of Day
10h 17m
Full, 99% of the Moon is Illuminated
Oct 30
Full
Nov 6
Last Quarter
Nov 13
New
Nov 20
First Quarter
Nov 28
Full

Hourly Weather History & Observations

Time (CDT) Temp. Windchill Dew Point Humidity Pressure Visibility Wind Dir Wind Speed Gust Speed Precip Events Conditions
12:54 AM 39.9 °F 37.8 °F 19.9 °F 45% 30.25 in 10.0 mi NE 3.5 mph - N/A   Mostly Cloudy
1:54 AM 37.9 °F 34.4 °F 19.9 °F 48% 30.24 in 10.0 mi NNE 4.6 mph - N/A   Clear
2:54 AM 35.1 °F 31.0 °F 21.9 °F 59% 30.24 in 10.0 mi North 4.6 mph - N/A   Clear
3:54 AM 34.0 °F 28.0 °F 21.9 °F 61% 30.22 in 10.0 mi North 6.9 mph - N/A   Clear
4:54 AM 34.0 °F 28.8 °F 21.0 °F 59% 30.22 in 10.0 mi North 5.8 mph - N/A   Clear
5:54 AM 33.1 °F 27.7 °F 21.9 °F 64% 30.22 in 10.0 mi NE 5.8 mph - N/A   Clear
6:54 AM 30.9 °F 23.5 °F 21.0 °F 67% 30.22 in 10.0 mi NNE 8.1 mph - N/A   Clear
7:54 AM 32.0 °F 26.4 °F 21.9 °F 66% 30.21 in 10.0 mi North 5.8 mph - N/A   Clear
8:54 AM 35.1 °F 31.0 °F 25.0 °F 67% 30.21 in 10.0 mi North 4.6 mph - N/A   Clear
9:54 AM 39.0 °F 31.8 °F 27.0 °F 62% 30.20 in 10.0 mi NNE 11.5 mph - N/A   Clear
10:54 AM 43.0 °F 35.7 °F 28.0 °F 56% 30.19 in 10.0 mi NE 15.0 mph - N/A   Clear
11:54 AM 46.0 °F 40.2 °F 28.0 °F 50% 30.16 in 10.0 mi NNE 12.7 mph - N/A   Clear
12:54 PM 48.0 °F - 26.1 °F 42% 30.13 in 10.0 mi NNE 12.7 mph 18.4 mph N/A   Clear
1:54 PM 50.0 °F - 24.1 °F 36% 30.09 in 10.0 mi North 11.5 mph 21.9 mph N/A   Clear
2:54 PM 51.1 °F - 21.9 °F 32% 30.07 in 10.0 mi North 15.0 mph - N/A   Clear
3:54 PM 51.1 °F - 21.9 °F 32% 30.06 in 10.0 mi North 20.7 mph 25.3 mph N/A   Clear
4:54 PM 48.9 °F - 21.0 °F 33% 30.06 in 10.0 mi North 17.3 mph - N/A   Clear
5:54 PM 45.0 °F 38.9 °F 23.0 °F 42% 30.06 in 10.0 mi North 12.7 mph - N/A   Clear
6:54 PM 42.1 °F 35.2 °F 21.0 °F 43% 30.07 in 10.0 mi North 12.7 mph - N/A   Clear
7:54 PM 42.1 °F 34.5 °F 19.9 °F 41% 30.07 in 10.0 mi North 15.0 mph - N/A   Clear
8:54 PM 41.0 °F 33.5 °F 19.9 °F 43% 30.06 in 10.0 mi North 13.8 mph - N/A   Clear
9:54 PM 37.0 °F 28.9 °F 21.0 °F 52% 30.07 in 10.0 mi North 12.7 mph - N/A   Clear
10:54 PM 36.0 °F 28.5 °F 21.0 °F 55% 30.06 in 10.0 mi North 10.4 mph - N/A   Clear
11:54 PM 33.1 °F 26.1 °F 21.0 °F 61% 30.05 in 10.0 mi NNE 8.1 mph - N/A   Clear